Location: Arthez
(43.0833°N, 0.2500°W)
Time: 11:16:35
(UTC+00:00)

Cosmos 304 Rocket - Pass Details

Date: 02 June 2022
Orbit: 679 x 686 km, 74.0° (Epoch: 01 July)

Event Time Altitude Azimuth Distance (km) Brightness Sun altitude
Exits shadow 23:38:10 82° 192° (SSW) 699 3.6 -24.5°
Maximum altitude 23:38:23 89° 107° (ESE) 693 3.6 -24.5°
Drops below altitude 10° 23:43:13 10° 20° (NNE) 2,143 7.2 -24.5°
Sets 23:45:32 0° 21° (NNE) 3,062 8.2 -24.6°
